Location: *
(41.7492°S, 135.4150°W)
Time: 17:09:21
(UTC+00:00)

Vanguard 2 - All Passes

Search period start: 26 May 2022 00:00
Search period end: 05 June 2022 00:00
Orbit: 552 x 2935 km, 32.9° (Epoch: 26 May)

Date Brightness Start Highest point End Pass type
(mag) Time Alt. Az. Time Alt. Az. Time Alt. Az.
26 May - 02:02:34 10° NNW 02:07:01 17° NNE 02:10:31 10° NE daylight
26 May - 04:10:30 10° NW 04:15:04 26° N 04:18:40 10° ENE visible
26 May - 06:19:20 10° WNW 06:22:38 22° N 06:25:46 10° NE night (unlit)
27 May - 02:18:46 10° NW 02:24:16 22° NNE 02:28:18 10° ENE visible
27 May - 04:27:35 10° WNW 04:32:14 28° N 04:35:53 10° ENE visible
27 May - 06:36:49 10° WNW 06:39:43 18° NNW 06:42:31 10° NNE night (unlit)
28 May - 00:28:06 10° N 00:32:52 15° NNE 00:36:42 10° NE daylight
28 May - 02:35:23 10° NW 02:41:29 27° N 02:45:49 10° ENE visible
28 May - 04:44:46 10° WNW 04:49:22 29° N 04:53:00 10° NE visible
28 May - 06:54:35 10° NW 06:56:46 14° NNW 06:58:54 10° NNE night (unlit)
29 May - 00:43:33 10° NNW 00:50:09 20° NNE 00:55:01 10° ENE daylight
29 May - 02:52:16 10° NW 02:58:42 31° N 03:03:09 10° ENE visible
29 May - 05:02:04 10° WNW 05:06:29 27° NNW 05:10:01 10° NE visible
29 May - 22:54:41 10° N 22:58:11 12° NNE 23:01:16 10° NE daylight
30 May - 00:59:41 10° NW 01:07:26 26° NNE 01:12:46 10° ENE daylight
30 May - 03:09:19 10° WNW 03:15:53 34° N 03:20:22 10° ENE visible
30 May - 05:19:28 10° WNW 05:23:33 23° NNW 05:26:54 10° NE visible
30 May - 23:08:33 10° N 23:15:29 17° NNE 23:20:53 10° ENE daylight
31 May - 01:16:14 10° NW 01:24:41 31° NNE 01:30:17 10° ENE daylight
31 May - 03:26:31 10° WNW 03:33:03 35° N 03:37:32 10° ENE visible
31 May - 05:37:02 10° WNW 05:40:34 19° NNW 05:43:34 10° NNE visible
31 May - 23:23:54 10° NNW 23:32:46 23° NNE 23:39:10 10° ENE daylight
01 Jun - 01:33:03 10° NW 01:41:56 36° N 01:47:38 10° ENE daylight
01 Jun - 03:43:48 10° WNW 03:50:12 35° N 03:54:35 10° NE visible
01 Jun - 05:54:55 10° WNW 05:57:31 14° NNW 05:59:50 10° N visible
01 Jun - 21:35:04 10° N 21:40:16 13° NNE 21:44:48 10° NE daylight
01 Jun - 23:39:54 10° NNW 23:50:03 29° NNE 23:56:58 10° ENE daylight
02 Jun - 01:50:05 10° WNW 01:59:09 40° N 02:04:53 10° ENE daylight
02 Jun - 04:01:10 10° WNW 04:07:17 32° NNW 04:11:34 10° NE visible
02 Jun - 21:48:49 10° N 21:57:32 18° NNE 22:04:25 10° ENE daylight
02 Jun - 23:56:19 10° NW 00:07:20 35° NNE 00:14:30 10° ENE daylight
03 Jun - 02:07:15 10° WNW 02:16:22 43° N 02:22:03 10° ENE visible
03 Jun - 04:18:38 10° WNW 04:24:18 27° NNW 04:28:23 10° NE visible
03 Jun - 22:03:57 10° NNW 22:14:46 24° NNE 22:22:49 10° ENE daylight
04 Jun - 00:13:03 10° NW 00:24:35 40° N 00:31:53 10° ENE daylight
04 Jun - 02:24:32 10° WNW 02:33:32 43° N 02:39:09 10° ENE visible
04 Jun - 04:36:14 10° WNW 04:41:15 22° NNW 04:45:01 10° NNE visible
04 Jun - 20:16:11 10° NNE 20:21:51 13° NE 20:26:58 10° ENE daylight
04 Jun - 22:19:46 10° NNW 22:32:02 31° NNE 22:40:42 10° ENE daylight
